| time (UTC) | temp F | wind direction | speed knots | gust knots | rain 1hr in | rain 24hr in | rain mn in | humidity % | barometer mb |
| 20260504015428 | 62 | 22 | 2.6 | 7.0 | 0.00 | 0.01 | 0.01 | 58 | 1005.9 |
| 20260504014937 | 62 | 24 | 2.6 | 5.2 | 0.00 | 0.01 | 0.01 | 58 | 1006.0 |
| 20260504014429 | 63 | 24 | 2.6 | 4.3 | 0.00 | 0.01 | 0.01 | 58 | 1005.9 |
| 20260504013919 | 63 | 20 | 2.6 | 7.0 | 0.00 | 0.01 | 0.01 | 57 | 1005.9 |
| 20260504013455 | 63 | 18 | 3.5 | 7.8 | 0.00 | 0.01 | 0.01 | 57 | 1005.8 |
| 20260504012926 | 63 | 23 | 2.6 | 7.0 | 0.00 | 0.01 | 0.01 | 56 | 1005.9 |
| 20260504012415 | 63 | 23 | 2.6 | 7.0 | 0.00 | 0.01 | 0.01 | 56 | 1005.8 |
| 20260504011925 | 64 | 28 | 2.6 | 7.0 | 0.00 | 0.01 | 0.01 | 56 | 1005.9 |
| 20260504011433 | 64 | 24 | 3.5 | 7.8 | 0.00 | 0.01 | 0.01 | 56 | 1005.8 |
| 20260504010940 | 64 | 28 | 2.6 | 7.8 | 0.00 | 0.01 | 0.01 | 55 | 1005.8 |
| 20260504010427 | 64 | 23 | 2.6 | 7.8 | 0.00 | 0.01 | 0.01 | 55 | 1005.8 |
| 20260504005919 | 64 | 26 | 3.5 | 5.2 | 0.00 | 0.01 | 0.01 | 55 | 1005.8 |
| 20260504005429 | 65 | 22 | 3.5 | 5.2 | 0.00 | 0.01 | 0.01 | 54 | 1005.7 |
| 20260504004918 | 65 | 23 | 3.5 | 8.7 | 0.00 | 0.01 | 0.01 | 54 | 1005.7 |
| 20260504004431 | 65 | 19 | 5.2 | 9.6 | 0.00 | 0.01 | 0.01 | 53 | 1005.8 |
| 20260504003942 | 65 | 23 | 5.2 | 9.6 | 0.00 | 0.01 | 0.01 | 53 | 1005.8 |
| 20260504003431 | 66 | 30 | 3.5 | 10.4 | 0.00 | 0.01 | 0.01 | 53 | 1005.9 |
| 20260504002922 | 66 | 33 | 3.5 | 10.4 | 0.00 | 0.01 | 0.01 | 52 | 1005.8 |
| 20260504002431 | 66 | 30 | 5.2 | 11.3 | 0.00 | 0.01 | 0.01 | 51 | 1005.8 |
| 20260504001940 | 66 | 27 | 5.2 | 11.3 | 0.00 | 0.01 | 0.01 | 51 | 1005.9 |
| 20260504001446 | 67 | 34 | 4.3 | 11.3 | 0.00 | 0.01 | 0.01 | 51 | 1005.9 |
| 20260504000915 | 67 | 215 | 4.3 | 7.8 | 0.00 | 0.01 | 0.01 | 50 | 1005.9 |
| 20260504000423 | 67 | 227 | 4.3 | 8.7 | 0.00 | 0.01 | 0.01 | 50 | 1005.8 |
| 20260503235934 | 67 | 231 | 5.2 | 8.7 | 0.00 | 0.01 | 0.01 | 50 | 1005.8 |
| 20260503235423 | 67 | 207 | 3.5 | 7.8 | 0.00 | 0.01 | 0.01 | 50 | 1005.8 |
| 20260503234931 | 68 | 250 | 3.5 | 7.8 | 0.00 | 0.01 | 0.01 | 49 | 1005.8 |
| 20260503234421 | 68 | 212 | 3.5 | 9.6 | 0.00 | 0.01 | 0.01 | 49 | 1005.9 |
| 20260503233930 | 68 | 247 | 4.3 | 9.6 | 0.00 | 0.01 | 0.01 | 48 | 1005.9 |
| 20260503233418 | 68 | 218 | 5.2 | 9.6 | 0.00 | 0.01 | 0.01 | 48 | 1005.9 |
| 20260503232928 | 68 | 209 | 3.5 | 12.2 | 0.00 | 0.01 | 0.01 | 47 | 1005.8 |
| 20260503232417 | 68 | 213 | 5.2 | 12.2 | 0.00 | 0.01 | 0.01 | 47 | 1005.8 |
| 20260503231923 | 68 | 254 | 2.6 | 15.6 | 0.00 | 0.01 | 0.01 | 48 | 1005.9 |
| 20260503231430 | 68 | 249 | 5.2 | 15.6 | 0.00 | 0.01 | 0.01 | 47 | 1005.8 |
| 20260503230938 | 68 | 215 | 4.3 | 9.6 | 0.00 | 0.01 | 0.01 | 47 | 1005.8 |
| 20260503230447 | 68 | 207 | 3.5 | 12.2 | 0.00 | 0.01 | 0.01 | 47 | 1005.9 |
| 20260503225932 | 68 | 246 | 4.3 | 12.2 | 0.00 | 0.01 | 0.01 | 47 | 1006.0 |
| 20260503225420 | 68 | 195 | 6.1 | 12.2 | 0.00 | 0.01 | 0.01 | 46 | 1006.0 |
| 20260503224926 | 68 | 250 | 3.5 | 12.2 | 0.00 | 0.01 | 0.01 | 47 | 1006.0 |
| 20260503224438 | 68 | 215 | 7.0 | 12.2 | 0.00 | 0.01 | 0.01 | 46 | 1006.0 |
| 20260503223948 | 68 | 203 | 7.0 | 12.2 | 0.00 | 0.01 | 0.01 | 46 | 1006.0 |
| 20260503223434 | 68 | 207 | 6.1 | 14.8 | 0.00 | 0.01 | 0.01 | 47 | 1006.1 |
| 20260503222926 | 68 | 238 | 5.2 | 14.8 | 0.00 | 0.01 | 0.01 | 46 | 1006.1 |
| 20260503222415 | 68 | 182 | 7.0 | 13.0 | 0.00 | 0.01 | 0.01 | 46 | 1006.2 |
| 20260503221920 | 68 | 231 | 6.1 | 13.0 | 0.00 | 0.01 | 0.01 | 46 | 1006.2 |
| 20260503221429 | 67 | 216 | 7.8 | 13.0 | 0.00 | 0.01 | 0.01 | 46 | 1006.3 |
| 20260503220934 | 67 | 207 | 5.2 | 13.0 | 0.00 | 0.01 | 0.01 | 47 | 1006.4 |
| 20260503220421 | 66 | 203 | 3.5 | 9.6 | 0.00 | 0.01 | 0.01 | 48 | 1006.5 |
| 20260503215932 | 66 | 204 | 4.3 | 12.2 | 0.00 | 0.01 | 0.01 | 48 | 1006.4 |
| 20260503215420 | 66 | 207 | 5.2 | 12.2 | 0.00 | 0.01 | 0.01 | 48 | 1006.4 |
| 20260503214930 | 65 | 190 | 6.1 | 12.2 | 0.00 | 0.01 | 0.01 | 48 | 1006.5 |
| 20260503214439 | 66 | 203 | 7.8 | 13.0 | 0.00 | 0.01 | 0.01 | 48 | 1006.5 |
| 20260503213945 | 66 | 229 | 6.1 | 15.6 | 0.00 | 0.01 | 0.01 | 49 | 1006.7 |
| 20260503213432 | 66 | 191 | 8.7 | 15.6 | 0.00 | 0.01 | 0.01 | 46 | 1006.6 |
| 20260503212923 | 66 | 206 | 6.1 | 18.2 | 0.00 | 0.01 | 0.01 | 48 | 1006.9 |
| 20260503212429 | 66 | 186 | 8.7 | 18.2 | 0.00 | 0.01 | 0.01 | 48 | 1006.9 |
| 20260503211918 | 65 | 221 | 7.0 | 13.0 | 0.00 | 0.01 | 0.01 | 47 | 1007.2 |
| 20260503211445 | 65 | 190 | 8.7 | 13.0 | 0.00 | 0.01 | 0.01 | 47 | 1007.2 |
| 20260503210929 | 66 | 152 | 7.0 | 12.2 | 0.00 | 0.01 | 0.01 | 47 | 1007.1 |
| 20260503210417 | 65 | 245 | 8.7 | 14.8 | 0.00 | 0.01 | 0.01 | 47 | 1007.4 |
| 20260503205930 | 64 | 218 | 7.0 | 14.8 | 0.00 | 0.01 | 0.01 | 48 | 1007.4 |
| 20260503205419 | 64 | 210 | 7.8 | 13.0 | 0.00 | 0.01 | 0.01 | 46 | 1007.5 |
| 20260503204926 | 64 | 217 | 6.1 | 13.0 | 0.00 | 0.01 | 0.01 | 46 | 1007.6 |
| 20260503204438 | 64 | 171 | 7.8 | 14.8 | 0.00 | 0.01 | 0.01 | 46 | 1007.7 |
| 20260503203944 | 65 | 238 | 8.7 | 15.6 | 0.00 | 0.01 | 0.01 | 45 | 1007.9 |
| 20260503203429 | 66 | 206 | 7.8 | 14.8 | 0.00 | 0.01 | 0.01 | 45 | 1007.9 |
| 20260503202941 | 66 | 195 | 5.2 | 18.2 | 0.00 | 0.01 | 0.01 | 46 | 1008.0 |
| 20260503202455 | 65 | 211 | 9.6 | 17.4 | 0.00 | 0.01 | 0.01 | 45 | 1008.0 |
| 20260503202006 | 65 | 213 | 9.6 | 14.8 | 0.00 | 0.01 | 0.01 | 44 | 1008.1 |
| 20260503201427 | 65 | 213 | 8.7 | 15.6 | 0.00 | 0.01 | 0.01 | 45 | 1008.2 |
| 20260503200936 | 65 | 213 | 10.4 | 15.6 | 0.00 | 0.01 | 0.01 | 44 | 1008.1 |
| 20260503200443 | 65 | 208 | 9.6 | 17.4 | 0.00 | 0.01 | 0.01 | 47 | 1008.2 |
| 20260503195933 | 64 | 47 | 9.6 | 21.7 | 0.00 | 0.01 | 0.01 | 47 | 1008.1 |
| 20260503195420 | 64 | 28 | 10.4 | 20.9 | 0.00 | 0.01 | 0.01 | 48 | 1008.2 |
| 20260503194929 | 64 | 29 | 12.2 | 20.9 | 0.00 | 0.01 | 0.01 | 47 | 1008.2 |
| 20260503194419 | 63 | 28 | 8.7 | 20.9 | 0.00 | 0.01 | 0.01 | 51 | 1008.2 |
| 20260503193926 | 63 | 28 | 11.3 | 20.9 | 0.00 | 0.01 | 0.01 | 50 | 1008.4 |
| 20260503193413 | 62 | 22 | 10.4 | 19.1 | 0.00 | 0.01 | 0.01 | 51 | 1008.4 |
| 20260503192924 | 62 | 29 | 7.8 | 15.6 | 0.00 | 0.01 | 0.01 | 53 | 1008.5 |
| 20260503192429 | 62 | 25 | 7.8 | 13.0 | 0.00 | 0.01 | 0.01 | 55 | 1008.6 |
| 20260503191915 | 61 | 22 | 7.8 | 20.0 | 0.00 | 0.01 | 0.01 | 56 | 1008.6 |
| 20260503191429 | 61 | 19 | 10.4 | 20.0 | 0.00 | 0.01 | 0.01 | 55 | 1008.8 |
| 20260503190939 | 60 | 23 | 12.2 | 17.4 | 0.00 | 0.01 | 0.01 | 57 | 1008.8 |
| 20260503190426 | 60 | 18 | 7.0 | 14.8 | 0.00 | 0.01 | 0.01 | 63 | 1009.0 |
| 20260503185935 | 59 | 16 | 7.8 | 14.8 | 0.00 | 0.01 | 0.01 | 62 | 1009.0 |
| 20260503185442 | 58 | 16 | 8.7 | 15.6 | 0.00 | 0.01 | 0.01 | 63 | 1009.2 |
| 20260503184930 | 58 | 15 | 8.7 | 14.8 | 0.00 | 0.01 | 0.01 | 64 | 1009.4 |
| 20260503184441 | 58 | 15 | 7.0 | 16.5 | 0.00 | 0.01 | 0.01 | 64 | 1009.5 |
| 20260503183928 | 57 | 16 | 9.6 | 16.5 | 0.00 | 0.01 | 0.01 | 63 | 1009.5 |
| 20260503183418 | 57 | 18 | 5.2 | 12.2 | 0.00 | 0.01 | 0.01 | 68 | 1009.6 |
| 20260503182953 | 56 | 20 | 6.1 | 12.2 | 0.00 | 0.01 | 0.01 | 69 | 1009.7 |
| 20260503182441 | 55 | 26 | 6.1 | 11.3 | 0.00 | 0.01 | 0.01 | 71 | 1009.7 |
| 20260503181926 | 54 | 15 | 4.3 | 9.6 | 0.00 | 0.01 | 0.01 | 74 | 1009.8 |
| 20260503181416 | 54 | 16 | 4.3 | 7.8 | 0.01 | 0.01 | 0.01 | 77 | 1010.0 |
| 20260503180923 | 53 | 16 | 4.3 | 12.2 | 0.01 | 0.01 | 0.01 | 77 | 1010.2 |
| 20260503180413 | 52 | 17 | 4.3 | 12.2 | 0.01 | 0.01 | 0.01 | 78 | 1010.4 |
| 20260503175927 | 52 | 17 | 3.5 | 7.0 | 0.01 | 0.01 | 0.01 | 77 | 1010.6 |
| 20260503175436 | 51 | 14 | 4.3 | 9.6 | 0.01 | 0.01 | 0.01 | 79 | 1010.6 |
| 20260503174920 | 51 | 14 | 4.3 | 9.6 | 0.01 | 0.01 | 0.01 | 79 | 1010.8 |
| 20260503174428 | 50 | 15 | 6.1 | 9.6 | 0.01 | 0.01 | 0.01 | 80 | 1011.1 |
| 20260503173916 | 50 | 15 | 4.3 | 17.4 | 0.01 | 0.01 | 0.01 | 81 | 1011.2 |
| 20260503173424 | 50 | 16 | 10.4 | 17.4 | 0.01 | 0.01 | 0.01 | 80 | 1011.7 |
| 20260503172929 | 49 | 15 | 3.5 | 7.8 | 0.01 | 0.01 | 0.01 | 85 | 1012.0 |
| 20260503172414 | 49 | 15 | 4.3 | 11.3 | 0.01 | 0.01 | 0.01 | 84 | 1012.1 |
| 20260503171922 | 49 | 17 | 6.1 | 11.3 | 0.01 | 0.01 | 0.01 | 84 | 1012.3 |
| 20260503171430 | 49 | 17 | 5.2 | 11.3 | 0.00 | 0.00 | 0.00 | 84 | 1012.6 |
| 20260503170919 | 49 | 18 | 6.1 | 11.3 | 0.00 | 0.00 | 0.00 | 84 | 1012.8 |
| 20260503170427 | 49 | 14 | 3.5 | 8.7 | 0.00 | 0.00 | 0.00 | 85 | 1012.5 |
| 20260503150924 | 54 | 15 | 7.0 | 10.4 | 0.00 | 0.00 | 0.00 | 62 | 1013.8 |
| 20260503150430 | 53 | 14 | 3.5 | 10.4 | 0.00 | 0.00 | 0.00 | 63 | 1013.7 |
| 20260503130931 | 49 | 15 | 3.5 | 8.7 | 0.00 | 0.00 | 0.00 | 64 | 1014.4 |
| 20260503130418 | 49 | 16 | 4.3 | 8.7 | 0.00 | 0.00 | 0.00 | 64 | 1014.5 |
| 20260503110442 | 45 | 28 | 2.6 | 7.0 | 0.00 | 0.00 | 0.00 | 67 | 1014.2 |
| 20260503090423 | 44 | 24 | 1.7 | 3.5 | 0.00 | 0.00 | 0.00 | 66 | 1014.7 |
| 20260503081424 | 45 | 28 | 2.6 | 5.2 | 0.00 | 0.00 | 0.00 | 62 | 1014.9 |
| 20260503080934 | 45 | 26 | 2.6 | 7.0 | 0.00 | 0.00 | 0.00 | 62 | 1014.9 |
| 20260503080442 | 45 | 28 | 3.5 | 7.0 | 0.00 | 0.00 | 0.00 | 61 | 1015.0 |
| 20260503072926 | 45 | 26 | 1.7 | 7.0 | 0.00 | 0.00 | 0.00 | 61 | 1014.8 |
| 20260503072416 | 45 | 25 | 2.6 | 5.2 | 0.00 | 0.00 | 0.00 | 60 | 1014.8 |
| 20260503071925 | 45 | 26 | 1.7 | 7.0 | 0.00 | 0.00 | 0.00 | 61 | 1014.9 |
| 20260503071416 | 45 | 30 | 2.6 | 7.0 | 0.00 | 0.00 | 0.00 | 60 | 1014.9 |
| 20260503070954 | 45 | 26 | 2.6 | 5.2 | 0.00 | 0.00 | 0.00 | 61 | 1015.0 |
| 20260503070421 | 45 | 31 | 2.6 | 3.5 | 0.00 | 0.00 | 0.00 | 61 | 1014.9 |
| 20260503054915 | 46 | 22 | 1.7 | 3.5 | 0.00 | 0.00 | 0.00 | 58 | 1015.7 |
| 20260503054447 | 46 | 19 | 1.7 | 3.5 | 0.00 | 0.00 | 0.00 | 58 | 1015.8 |
| 20260503053933 | 46 | 22 | 1.7 | 3.5 | 0.00 | 0.00 | 0.00 | 57 | 1015.9 |
| 20260503053421 | 47 | 24 | 1.7 | 5.2 | 0.00 | 0.00 | 0.00 | 57 | 1015.9 |
| 20260503052930 | 47 | 21 | 1.7 | 7.0 | 0.00 | 0.00 | 0.00 | 56 | 1015.9 |
| 20260503052417 | 47 | 24 | 2.6 | 7.8 | 0.00 | 0.00 | 0.00 | 56 | 1016.0 |
| 20260503051924 | 47 | 33 | 2.6 | 7.8 | 0.00 | 0.00 | 0.00 | 56 | 1016.0 |
| 20260503051414 | 47 | 32 | 2.6 | 5.2 | 0.00 | 0.00 | 0.00 | 56 | 1016.1 |
| 20260503050921 | 47 | 30 | 2.6 | 3.5 | 0.00 | 0.00 | 0.00 | 56 | 1016.0 |
| 20260503050431 | 47 | 29 | 2.6 | 5.2 | 0.00 | 0.00 | 0.00 | 57 | 1016.0 |
| 20260503045930 | 47 | 28 | 1.7 | 5.2 | 0.00 | 0.00 | 0.00 | 57 | 1016.1 |
| 20260503045416 | 47 | 24 | 2.6 | 4.3 | 0.00 | 0.00 | 0.00 | 57 | 1016.2 |
| 20260503044925 | 47 | 22 | 2.6 | 4.3 | 0.00 | 0.00 | 0.00 | 57 | 1016.1 |
| 20260503044417 | 47 | 24 | 2.6 | 3.5 | 0.00 | 0.00 | 0.00 | 57 | 1016.1 |
| 20260503043954 | 47 | 24 | 1.7 | 3.5 | 0.00 | 0.00 | 0.00 | 57 | 1016.1 |
| 20260503043440 | 47 | 25 | 2.6 | 5.2 | 0.00 | 0.00 | 0.00 | 56 | 1016.1 |
| 20260503042923 | 47 | 22 | 2.6 | 5.2 | 0.00 | 0.00 | 0.00 | 56 | 1016.1 |
| 20260503042431 | 47 | 21 | 1.7 | 4.3 | 0.00 | 0.00 | 0.00 | 57 | 1016.0 |
| 20260503041916 | 47 | 23 | 1.7 | 4.3 | 0.00 | 0.00 | 0.00 | 57 | 1016.0 |
| 20260503041426 | 47 | 22 | 2.6 | 4.3 | 0.00 | 0.00 | 0.00 | 57 | 1016.1 |
| 20260503040916 | 47 | 19 | 1.7 | 3.5 | 0.00 | 0.00 | 0.00 | 57 | 1016.1 |
| 20260503040425 | 47 | 22 | 2.6 | 3.5 | 0.00 | 0.00 | 0.00 | 57 | 1016.1 |
| 20260503035936 | 47 | 28 | 1.7 | 3.5 | 0.00 | 0.00 | 0.00 | 57 | 1016.1 |
| 20260503035421 | 47 | 21 | 1.7 | 3.5 | 0.00 | 0.00 | 0.00 | 58 | 1016.1 |
| 20260503034924 | 47 | 21 | 1.7 | 3.5 | 0.00 | 0.00 | 0.00 | 57 | 1016.1 |
| 20260503034436 | 47 | 19 | 2.6 | 3.5 | 0.00 | 0.00 | 0.00 | 57 | 1016.2 |
| 20260503033944 | 48 | 20 | 1.7 | 2.6 | 0.00 | 0.00 | 0.00 | 57 | 1016.2 |
| 20260503033432 | 48 | 19 | 1.7 | 2.6 | 0.00 | 0.00 | 0.00 | 57 | 1016.2 |
| 20260503032921 | 48 | 20 | 1.7 | 3.5 | 0.00 | 0.00 | 0.00 | 56 | 1016.3 |
| 20260503032429 | 48 | 22 | 1.7 | 3.5 | 0.00 | 0.00 | 0.00 | 56 | 1016.3 |
| 20260503031915 | 48 | 22 | 1.7 | 3.5 | 0.00 | 0.00 | 0.00 | 55 | 1016.3 |
| 20260503031448 | 48 | 21 | 1.7 | 3.5 | 0.00 | 0.00 | 0.00 | 55 | 1016.3 |
| 20260503030422 | 48 | 19 | 1.7 | 2.6 | 0.00 | 0.00 | 0.00 | 55 | 1016.3 |
| 20260503025934 | 48 | 18 | 1.7 | 2.6 | 0.00 | 0.00 | 0.00 | 54 | 1016.4 |
| 20260503025423 | 48 | 18 | 1.7 | 2.6 | 0.00 | 0.00 | 0.00 | 54 | 1016.4 |
| 20260503024934 | 49 | 17 | 1.7 | 3.5 | 0.00 | 0.00 | 0.00 | 54 | 1016.3 |
| 20260503024427 | 49 | 19 | 1.7 | 3.5 | 0.00 | 0.00 | 0.00 | 54 | 1016.3 |
| 20260503023936 | 49 | 17 | 1.7 | 3.5 | 0.00 | 0.00 | 0.00 | 54 | 1016.3 |
| 20260503023417 | 49 | 19 | 1.7 | 3.5 | 0.00 | 0.00 | 0.00 | 53 | 1016.4 |
| 20260503022930 | 49 | 19 | 1.7 | 2.6 | 0.00 | 0.00 | 0.00 | 53 | 1016.4 |
| 20260503022435 | 49 | 17 | 1.7 | 2.6 | 0.00 | 0.00 | 0.00 | 53 | 1016.4 |
| 20260503021942 | 49 | 19 | 1.7 | 2.6 | 0.00 | 0.00 | 0.00 | 52 | 1016.4 |
| 20260503021426 | 50 | 22 | 1.7 | 2.6 | 0.00 | 0.00 | 0.00 | 52 | 1016.4 |
| 20260503020935 | 50 | 24 | 0.9 | 2.6 | 0.00 | 0.00 | 0.00 | 51 | 1016.3 |
| 20260503020444 | 50 | 24 | 0.9 | 2.6 | 0.00 | 0.00 | 0.00 | 51 | 1016.3 |
| 20260503015916 | 50 | 19 | 0.9 | 1.7 | 0.00 | 0.00 | 0.00 | 50 | 1016.3 |